Weather History for LTCG - March, 2013

Change the Weather History Date:

Thursday, March 28, 2013

  Actual Average Record
Temperature  
Mean Temperature 50 °F -  
Max Temperature 53 °F 56 °F 91 °F (2001)
Min Temperature 46 °F 46 °F 32 °F (2003)
Degree Days  
Heating Degree Days 16    
Moisture  
Dew Point 48 °F    
Average Humidity 93    
Maximum Humidity 100    
Minimum Humidity 76    
Precipitation  
Precipitation 0.08 in - - ()
Sea Level Pressure  
Sea Level Pressure 30.00 in    
Wind  
Wind Speed 7 mph ()    
Max Wind Speed 20 mph    
Max Gust Speed -    
Visibility 3.7 miles    
Events Fog , Rain    
Averages and records for this station are not official NWS values.
T = Trace of Precipitation, MM = Missing Value Source: Averaged Metar Reports

Daily Weather History Graph

Daily Weather History Graph

Search for Another Location

Airport or City:

Trip Planner

Search our weather history database for the weather conditions in past years. The results will help you decide how hot, cold, wet, or windy it might be!

Date:

Astronomy

Mar. 28, 2013 Rise Set
Actual Time 5:11 AM EET 5:41 PM EET
Civil Twilight 4:43 AM EET 6:09 PM EET
Nautical Twilight 4:10 AM EET 6:41 PM EET
Astronomical Twilight 3:37 AM EET 7:15 PM EET
Moon 7:09 PM EET 5:24 AM EET
Length of Visible Light 13h 25m
Length of Day
12h 30m
Full, 99% of the Moon is Illuminated
Mar 28
Full
Apr 3
Last Quarter
Apr 10
New
Apr 18
First Quarter
Apr 25
Full

Hourly Weather History & Observations

Time (EET) Temp. Windchill Dew Point Humidity Pressure Visibility Wind Dir Wind Speed Gust Speed Precip Events Conditions
12:20 AM 50.0 °F - 48.2 °F 94% 29.89 in 6.2 mi Variable 2.3 mph - N/A   Mostly Cloudy
12:50 AM 50.0 °F - 48.2 °F 94% 29.92 in 6.2 mi SE 3.5 mph - N/A   Scattered Clouds
1:20 AM 50.0 °F - 46.4 °F 87% 29.92 in 6.2 mi ESE 5.8 mph - N/A   Scattered Clouds
1:50 AM 50.0 °F - 46.4 °F 87% 29.92 in 6.2 mi ESE 6.9 mph - N/A   Scattered Clouds
2:00 AM 50 °F - 47 °F 85% 29.93 in 9 mi ESE 6.9 mph - -   Partly Cloudy
2:20 AM 51.8 °F - 46.4 °F 82% 29.92 in 6.2 mi SE 11.5 mph - N/A   Scattered Clouds
2:50 AM 50.0 °F - 48.2 °F 94% 29.92 in 6.2 mi ESE 11.5 mph - N/A   Scattered Clouds
3:20 AM 50.0 °F - 46.4 °F 87% 29.92 in 6.2 mi ESE 11.5 mph - N/A   Scattered Clouds
3:50 AM 50.0 °F - 46.4 °F 87% 29.92 in 6.2 mi SE 6.9 mph - N/A   Scattered Clouds
4:20 AM 50.0 °F - 46.4 °F 87% 29.92 in 6.2 mi SE 4.6 mph - N/A   Scattered Clouds
4:50 AM 50.0 °F - 46.4 °F 87% 29.92 in 6.2 mi ESE 9.2 mph - N/A   Scattered Clouds
5:20 AM 50.0 °F - 46.4 °F 87% 29.92 in 6.2 mi East 6.9 mph - N/A   Scattered Clouds
5:50 AM 50.0 °F - 46.4 °F 87% 29.92 in 6.2 mi East 5.8 mph - N/A   Scattered Clouds
6:20 AM 50.0 °F - 48.2 °F 94% 29.95 in 6.2 mi East 5.8 mph - N/A   Scattered Clouds
6:50 AM 53.6 °F - 48.2 °F 82% 29.95 in 6.2 mi East 5.8 mph - N/A   Scattered Clouds
7:20 AM 53.6 °F - 48.2 °F 82% 29.95 in 6.2 mi East 5.8 mph - N/A   Scattered Clouds
7:50 AM 53.6 °F - 48.2 °F 82% 29.95 in 6.2 mi East 6.9 mph - N/A   Scattered Clouds
8:00 AM 53 °F - 48 °F 76% 29.95 in 12 mi East 6.9 mph - -   Partly Cloudy
8:20 AM 53.6 °F - 48.2 °F 82% 29.95 in 6.2 mi East 5.8 mph - N/A   Scattered Clouds
8:50 AM 51.8 °F - 48.2 °F 88% 29.95 in 6.2 mi East 8.1 mph - N/A   Scattered Clouds
9:20 AM 51.8 °F - 48.2 °F 88% 29.95 in 6.2 mi East 9.2 mph - N/A   Scattered Clouds
9:50 AM 51.8 °F - 48.2 °F 88% 29.95 in 6.2 mi East 9.2 mph - N/A   Scattered Clouds
10:20 AM 51.8 °F - 48.2 °F 88% 29.95 in 6.2 mi East 8.1 mph - N/A   Scattered Clouds
10:50 AM 51.8 °F - 50.0 °F 94% 29.95 in 5.0 mi East 8.1 mph - N/A   Scattered Clouds
11:20 AM 51.8 °F - 48.2 °F 88% 29.95 in 4.3 mi East 8.1 mph - N/A   Scattered Clouds
11:40 AM 51.8 °F - 48.2 °F 88% 29.95 in 4.3 mi East 8.1 mph - N/A   Mostly Cloudy
11:50 AM 50.0 °F - 48.2 °F 94% 29.98 in 3.7 mi NE 5.8 mph - N/A   Mostly Cloudy
12:05 PM 50.0 °F - 48.2 °F 94% 29.98 in 3.7 mi NE 5.8 mph - N/A   Light Drizzle
12:13 PM 50.0 °F - 48.2 °F 94% 29.95 in 0.2 mi NNE 6.9 mph - N/A Fog Fog
12:20 PM 50.0 °F - 48.2 °F 94% 29.98 in 0.2 mi Variable 4.6 mph - N/A Fog Fog
12:50 PM 50.0 °F - 48.2 °F 94% 29.98 in 0.2 mi NNW 5.8 mph - N/A Fog Patches of Fog
1:20 PM 48.2 °F - 48.2 °F 100% 29.98 in 0.6 mi WNW 6.9 mph - N/A Fog Drizzle
1:41 PM 48.2 °F - 48.2 °F 100% 29.98 in 0.3 mi WNW 8.1 mph - N/A Fog Drizzle
1:50 PM 48.2 °F - 48.2 °F 100% 29.98 in 0.1 mi WNW 9.2 mph - N/A Fog Drizzle
2:00 PM 49 °F - 48 °F 96% 30.00 in 0 mi WNW 9.2 mph - - Rain Drizzle
2:10 PM 48.2 °F - 48.2 °F 100% 30.01 in 0.7 mi WNW 6.9 mph - N/A Fog Patches of Fog
2:20 PM 48.2 °F - 48.2 °F 100% 30.01 in 0.9 mi West 5.8 mph - N/A Fog Patches of Fog
2:30 PM 48.2 °F - 48.2 °F 100% 30.01 in 0.2 mi WNW 4.6 mph - N/A Fog Patches of Fog
2:47 PM 48.2 °F - 48.2 °F 100% 30.01 in 0.8 mi WNW 4.6 mph - N/A Fog Patches of Fog
2:50 PM 48.2 °F - 48.2 °F 100% 30.01 in 0.9 mi WNW 4.6 mph - N/A Fog Patches of Fog
3:20 PM 50.0 °F - 48.2 °F 94% 30.01 in 0.4 mi WNW 8.1 mph - N/A Fog Light Drizzle
3:50 PM 50.0 °F - 48.2 °F 94% 30.04 in 0.9 mi West 6.9 mph - N/A Fog Patches of Fog
4:09 PM 48.2 °F - 48.2 °F 100% 30.04 in 0.9 mi West 6.9 mph - N/A Fog Light Drizzle
4:20 PM 48.2 °F - 48.2 °F 100% 30.04 in 0.9 mi West 6.9 mph - N/A Fog Light Drizzle
4:50 PM 48.2 °F - 48.2 °F 100% 30.04 in 0.6 mi WNW 5.8 mph - N/A Fog Light Drizzle
5:20 PM 48.2 °F - 48.2 °F 100% 30.06 in 0.7 mi Variable 2.3 mph - N/A Fog Light Drizzle
5:50 PM 48.2 °F - 48.2 °F 100% 30.06 in 1.2 mi NW 3.5 mph - N/A Fog , Rain Light Rain Showers
6:20 PM 48.2 °F - 48.2 °F 100% 30.06 in 1.6 mi Variable 5.8 mph - N/A Fog , Rain Light Rain Showers
6:50 PM 48.2 °F - 48.2 °F 100% 30.09 in 1.7 mi NW 4.6 mph - N/A Fog , Rain Light Rain Showers
7:20 PM 48.2 °F - 48.2 °F 100% 30.09 in 2.2 mi NW 11.5 mph - N/A Fog , Rain Light Rain Showers
7:50 PM 48.2 °F - 48.2 °F 100% 30.09 in 2.5 mi NW 15.0 mph - N/A Fog , Rain Light Rain Showers
8:00 PM 48 °F - 48 °F 99% 30.10 in 2 mi NW 15.0 mph - - Rain Light Rain Showers
8:20 PM 48.2 °F - 46.4 °F 93% 30.09 in 2.8 mi NW 17.3 mph - N/A Rain Light Rain Showers
8:32 PM 48.2 °F - 46.4 °F 93% 30.09 in 4.3 mi NW 16.1 mph - N/A Rain Light Rain Showers
8:50 PM 46.4 °F 39.5 °F 46.4 °F 100% 30.12 in 5.0 mi NW 17.3 mph - N/A Rain Light Rain Showers
9:05 PM 46.4 °F 39.8 °F 46.4 °F 100% 30.12 in 1.7 mi NW 16.1 mph - N/A Rain Light Rain Showers
9:20 PM 46.4 °F 39.8 °F 46.4 °F 100% 30.12 in 4.3 mi NW 16.1 mph - N/A Rain Light Rain Showers
9:50 PM 46.4 °F 40.1 °F 46.4 °F 100% 30.12 in 5.6 mi WNW 15.0 mph - N/A Rain Light Rain Showers
10:20 PM 46.4 °F 39.5 °F 46.4 °F 100% 30.15 in 4.3 mi WNW 17.3 mph - N/A Rain Light Rain Showers
10:50 PM 46.4 °F 39.5 °F 46.4 °F 100% 30.15 in 4.3 mi WNW 17.3 mph - N/A Rain Light Rain Showers
11:20 PM 46.4 °F 39.2 °F 46.4 °F 100% 30.15 in 3.1 mi WNW 18.4 mph - N/A Rain Light Rain Showers
11:50 PM 46.4 °F 39.0 °F 44.6 °F 93% 30.15 in 3.7 mi NW 19.6 mph - N/A Rain Light Rain Showers